Location: Aalen
(48.8330°N, 10.1000°E)
Time: 18:09:06
(UTC+02:00)

M-CUBED/EXP-1 PRIME - Pass Details

Date: 26 September 2021
Orbit: 427 x 655 km, 101.7° (Epoch: 18 October)

Event Time Altitude Azimuth Distance (km) Brightness Sun altitude
Rises 05:56:58 0° 22° (NNE) 2,427 ? -13.1°
Reaches altitude 10° 05:59:00 10° 25° (NNE) 1,541 ? -12.7°
Maximum altitude 06:02:14 65° 108° (ESE) 476 ? -12.2°
Drops below altitude 10° 06:05:26 10° 191° (SSW) 1,526 ? -11.7°
Sets 06:07:27 0° 195° (SSW) 2,399 ? -11.4°
